logo tempoitalia

Diretta Meteo Draugen, Norvegialunedì 31 agosto ore 07:20

Mappa
Sereno 13 °C Coperto 24 Ore: T.min 11 T.max 13
Ponente Nord Km/h 14.8 Punto di rugiada: 7 °C Umidità: 66% Visibilità: 10 Km
Il sole sorge alle: 06:07 Il sole tramonta alle: 20:50
31 Agosto 2026 07:20 tempo osservato: Coperto Coperto 13 66 1006 vento: Nord N 14.8
31 Agosto 2026 06:50 tempo osservato: Coperto Coperto 13 76 1006 vento: Nord N 14.8
31 Agosto 2026 06:20 tempo osservato: Coperto Coperto 12 87 1006 vento: Nord N 16.7
31 Agosto 2026 05:50 tempo osservato: Coperto Coperto 12 87 1006 vento: Nord N/NE 16.7
31 Agosto 2026 05:20 tempo osservato: Coperto Coperto 12 87 1006 vento: Nord N/NE 16.7
31 Agosto 2026 04:50 tempo osservato: Coperto Coperto 12 93 1006 vento: Nord N/NE 16.7
31 Agosto 2026 04:20 tempo osservato: Coperto Coperto 12 93 1006 vento: Nord N 16.7
31 Agosto 2026 03:50 tempo osservato: Coperto Coperto 13 81 1005 vento: Nord N 14.8
31 Agosto 2026 03:20 tempo osservato: Coperto Coperto 13 76 1005 vento: Nord N 14.8
31 Agosto 2026 02:50 tempo osservato: Coperto Coperto 13 76 1005 vento: Nord N 16.7
31 Agosto 2026 02:20 tempo osservato: Coperto Coperto 13 76 1005 vento: Nord N 16.7
31 Agosto 2026 01:50 tempo osservato: Coperto Coperto 13 81 1005 vento: Nord N 14.8
31 Agosto 2026 01:20 tempo osservato: Coperto Coperto 13 76 1005 vento: Nord N 13
31 Agosto 2026 00:50 tempo osservato: Coperto Coperto 13 76 1005 vento: Nord N 14.8
31 Agosto 2026 00:20 tempo osservato: Coperto Coperto 12 81 1005 vento: Nord N 7.4
30 Agosto 2026 23:50 tempo osservato: Coperto Coperto 13 71 1005 vento: Nord N 14.8
30 Agosto 2026 23:20 tempo osservato: Coperto Coperto 13 71 1005 vento: Nord N 18.5
30 Agosto 2026 22:50 tempo osservato: Coperto Coperto 13 76 1005 vento: Nord N 18.5
30 Agosto 2026 22:20 tempo osservato: Coperto Coperto 13 81 1005 vento: Nord N 18.5
30 Agosto 2026 21:50 tempo osservato: Coperto Coperto 13 81 1005 vento: Nord N 20.3
30 Agosto 2026 21:20 tempo osservato: Coperto Coperto 13 93 1005 vento: Nord N 18.5
30 Agosto 2026 20:50 tempo osservato: Coperto Coperto 13 93 1005 vento: Nord N 18.5
30 Agosto 2026 20:20 tempo osservato: Coperto Coperto 13 100 1004 vento: Nord N 20.3
30 Agosto 2026 19:50 tempo osservato: Coperto Coperto 13 100 1004 vento: Nord N 18.5
30 Agosto 2026 19:20 tempo osservato: Coperto Coperto 13 100 1004 vento: Nord N 18.5
30 Agosto 2026 18:50 tempo osservato: Coperto Coperto 13 100 1004 vento: Nord N 18.5
30 Agosto 2026 18:20 tempo osservato: Coperto Coperto 13 100 1004 vento: Nord N 20.3
30 Agosto 2026 17:50 tempo osservato: Coperto Coperto 13 100 1004 vento: Nord N 16.7
30 Agosto 2026 17:20 tempo osservato: Coperto Coperto 13 100 1004 vento: Nord N 20.3
30 Agosto 2026 16:50 tempo osservato: Coperto Coperto 13 100 1004 vento: Nord N 16.7
30 Agosto 2026 16:20 tempo osservato: Coperto Coperto 12 100 1004 vento: Nord N 14.8
30 Agosto 2026 15:50 tempo osservato: Coperto Coperto 12 100 1003 vento: Nord N 14.8
30 Agosto 2026 15:20 tempo osservato: Coperto Coperto 12 100 1003 vento: Nord N 16.7
30 Agosto 2026 14:50 tempo osservato: Coperto Coperto 11 100 1003 vento: Nord NO 18.5
30 Agosto 2026 14:20 tempo osservato: Coperto Coperto 12 100 1003 vento: Nord N/NO 20.3
30 Agosto 2026 13:50 tempo osservato: Coperto Coperto 12 100 1003 vento: Nord NO 24
30 Agosto 2026 13:20 tempo osservato: Coperto Coperto 12 100 1003 vento: Nord NO 18.5
30 Agosto 2026 12:50 tempo osservato: Coperto Coperto 12 100 1003 vento: Nord N/NO 14.8
30 Agosto 2026 12:20 tempo osservato: Coperto Coperto 12 100 1003 vento: Nord N/NO 11.1
30 Agosto 2026 11:50 tempo osservato: Coperto Coperto 12 100 1002 vento: Nord N/NO 14.8
30 Agosto 2026 11:20 tempo osservato: Coperto Coperto 12 100 1002 vento: Nord N/NO 16.7
30 Agosto 2026 10:50 tempo osservato: Coperto Coperto 12 100 1002 vento: Nord N/NO 20.3
30 Agosto 2026 10:20 tempo osservato: Coperto Coperto 12 100 1002 vento: Nord N/NO 13
30 Agosto 2026 09:50 tempo osservato: Coperto Coperto 13 100 1002 vento: Nord N/NO 11.1
30 Agosto 2026 09:20 tempo osservato: Coperto Coperto 12 100 1002 vento: Nord NO 14.8
30 Agosto 2026 08:50 tempo osservato: Coperto Coperto 13 100 1002 vento: Nord NO 14.8
30 Agosto 2026 08:20 tempo osservato: Coperto Coperto 12 100 1001 vento: Nord NO 9.3
30 Agosto 2026 07:50 tempo osservato: Coperto Coperto 13 100 1001 vento: Nord N/NO 9.3